Content
SEND FEEDBACK

Daily
Averages
Monthly
Summary
United States of America

BOILING SPRING LAKES, NORTH CAROLINA


Home > North America > United States > North Carolina
Elevation: 20 feet     Latitude: 34 00N     Longitude: 078 01W

WEATHER
 
SELECT A DAY
Number of Records: 143,820;   Date Range: 8/21/01 - 10/21/14
 
SHARE

PRINT THIS DATA

[ ← Previous Day ]
WEATHER ALMANAC - JANUARY 2, 2013
[ Next Day → ]
[ °C ]   °F
Weather ElementAverageHighLow
Temperature49.5 °F55 °F (4:15 am)41.9 °F (10:55 pm)
Dewpoint46.7 °F52.9 °F (6:15 am)37.4 °F (11:15 pm)
Humidity90.1 %98 % (8:15 am)81 % (2:55 pm)
Barometer30.02 in30.19 in (11:35 pm)29.90 in (4:15 am)
Wind Speed5.4 mph12.7 mph (10:55 am)
Wind Gust19.6 mph (10:55 am)
Weather ElementAverage
Visibility8.2 mi
Wind DirectionENE (73 °)

Weather ElementTotal
Precipitation0.09 in
Heating Degree Days16.6 (Base 65)
Averaged from 69 records on January 2, 2013
WEATHER CONDITIONS BREAKOUT
WIND DIRECTION BREAKOUT
WEATHER BY HOUR - JANUARY 2, 2013
[ °C ]   °F
Local TimeTemperatureDewpointHumidityBarometerVisibilityWind DirectionWind SpeedGust SpeedPrecipitationEventsConditions
12:35 AM50.9 °F49.5 °F95 %29.93 in7.0 miCalmMostly Cloudy
12:55 AM50.4 °F49.1 °F95 %29.93 in7.0 miCalmMostly Cloudy
1:15 AM49.5 °F48.6 °F97 %29.92 in7.0 miCalmScattered Clouds
1:35 AM48.9 °F48.2 °F97 %29.92 in5.0 miCalmClear
1:55 AM48.4 °F47.5 °F97 %29.92 in7.0 miCalmMostly Cloudy
2:15 AM48.6 °F47.8 °F97 %29.92 in7.0 miCalmScattered Clouds
2:35 AM49.1 °F48.2 °F97 %29.92 in7.0 miCalmScattered Clouds
2:55 AM49.6 °F48.7 °F97 %29.92 in7.0 miCalmScattered Clouds
3:15 AM50.7 °F49.3 °F95 %29.92 in7.0 miCalmMostly Cloudy
3:35 AM51.6 °F50.2 °F95 %29.92 in10.0 miSW (230°)3.5 mphMostly Cloudy
3:55 AM53.8 °F51.8 °F93 %29.91 in10.0 miSW (220°)4.6 mphScattered Clouds
4:15 AM55.0 °F52.3 °F91 %29.90 in10.0 miSW (220°)6.9 mphMostly Cloudy
4:35 AM55.0 °F52.3 °F91 %29.91 in10.0 miWSW (240°)8.1 mphOvercast
4:55 AM55.0 °F52.2 °F90 %29.91 in5.0 miWSW (250°)9.2 mphRainRain
5:15 AM54.1 °F52.7 °F95 %29.91 in5.0 miWest (260°)8.1 mphDrizzle
5:35 AM54.5 °F52.7 °F94 %29.91 in7.0 miWest (260°)6.9 mphOvercast
5:55 AM54.5 °F52.7 °F94 %29.90 in7.0 miWest (260°)4.6 mphMostly Cloudy
6:15 AM54.7 °F52.9 °F94 %29.91 in7.0 miWest (260°)5.8 mphMostly Cloudy
6:35 AM54.5 °F52.7 °F94 %29.91 in7.0 miCalmRainLight Rain
6:55 AM53.6 °F52.3 °F95 %29.90 in7.0 miCalmScattered Clouds
7:15 AM53.1 °F52.2 °F97 %29.93 in5.0 miCalmMostly Cloudy
7:35 AM53.6 °F52.9 °F97 %29.93 in5.0 miNorth (360°)5.8 mphOvercast
7:55 AM52.9 °F52.2 °F97 %29.95 in5.0 miNorth (360°)4.6 mphOvercast
8:15 AM52.3 °F51.8 °F98 %29.94 in2.0 miNNE (20°)3.5 mph0.01 inRainHeavy Rain
8:35 AM51.8 °F51.3 °F98 %29.96 in2.0 miNorth (360°)6.9 mph0.02 inRainRain
8:55 AM51.8 °F51.1 °F97 %29.97 in2.5 miNorth (10°)5.8 mph0.05 inRainHeavy Rain
9:15 AM51.4 °F50.9 °F98 %29.99 in4.0 miNorth (10°)8.1 mphDrizzle
9:35 AM51.4 °F50.9 °F98 %30.00 in4.0 miNNE (20°)8.1 mphOvercast
9:55 AM51.1 °F50.2 °F97 %30.01 in3.0 miNorth (10°)10.4 mph0.01 inOvercast
10:15 AM51.1 °F50.0 °F96 %30.01 in5.0 miNNE (20°)8.1 mphOvercast
10:35 AM51.3 °F50.0 °F95 %30.02 in5.0 miNNE (30°)8.1 mphOvercast
10:55 AM50.9 °F49.6 °F95 %30.03 in7.0 miNorth (360°)12.7 mph19.6 mphOvercast
11:15 AM50.4 °F48.4 °F93 %30.02 in10.0 miNE (40°)9.2 mphMostly Cloudy
11:35 AM49.6 °F48.0 °F94 %30.03 in10.0 miNorth (10°)9.2 mphOvercast
11:55 AM50.0 °F47.3 °F90 %30.03 in10.0 miNNE (20°)8.1 mphOvercast
12:15 PM49.8 °F46.6 °F89 %30.03 in10.0 miNNE (30°)8.1 mphMostly Cloudy
12:35 PM49.5 °F46.6 °F90 %30.02 in10.0 miNE (40°)9.2 mphMostly Cloudy
12:55 PM49.6 °F46.2 °F88 %30.00 in10.0 miNE (40°)8.1 mph16.1 mphOvercast
1:15 PM49.5 °F45.9 °F87 %30.02 in10.0 miNE (40°)5.8 mphOvercast
1:35 PM50.0 °F46.0 °F86 %30.01 in10.0 miNE (40°)5.8 mphOvercast
1:55 PM50.0 °F45.7 °F85 %30.01 in10.0 miENE (60°)5.8 mphOvercast
2:15 PM50.4 °F45.7 °F84 %30.02 in10.0 miNE (40°)5.8 mphOvercast
2:35 PM50.7 °F45.3 °F82 %30.03 in10.0 miNE (50°)5.8 mphOvercast
2:55 PM50.4 °F44.8 °F81 %30.03 in10.0 miNE (40°)8.1 mphOvercast
3:15 PM50.2 °F44.6 °F81 %30.03 in10.0 miNE (40°)4.6 mphOvercast
3:35 PM50.0 °F44.4 °F81 %30.05 in10.0 miENE (70°)3.5 mphOvercast
3:55 PM49.6 °F44.6 °F83 %30.05 in10.0 miNE (50°)4.6 mphOvercast
4:15 PM49.3 °F44.8 °F84 %30.06 in10.0 miCalmOvercast
4:35 PM49.1 °F45.0 °F86 %30.07 in10.0 miENE (60°)4.6 mphOvercast
4:55 PM48.6 °F45.1 °F88 %30.08 in10.0 miENE (70°)4.6 mphOvercast
5:15 PM48.4 °F45.0 °F88 %30.08 in10.0 miNE (40°)5.8 mphOvercast
5:35 PM48.4 °F44.1 °F85 %30.08 in10.0 miNE (40°)5.8 mphOvercast
6:15 PM48.0 °F43.2 °F83 %30.11 in10.0 miNNE (20°)4.6 mphOvercast
6:35 PM47.5 °F42.8 °F84 %30.11 in10.0 miENE (60°)5.8 mphOvercast
6:55 PM47.1 °F42.3 °F83 %30.12 in10.0 miNNE (30°)9.2 mphOvercast
7:15 PM46.4 °F41.5 °F83 %30.11 in10.0 miENE (70°)4.6 mphOvercast
7:35 PM46.0 °F41.2 °F83 %30.14 in10.0 miNNE (30°)5.8 mphOvercast
7:55 PM45.5 °F41.0 °F84 %30.14 in10.0 miNNE (30°)3.5 mphOvercast
8:35 PM45.0 °F40.3 °F84 %30.14 in10.0 miNNE (30°)5.8 mphOvercast
8:55 PM44.6 °F40.8 °F87 %30.15 in10.0 miNNE (20°)8.1 mphOvercast
9:15 PM44.4 °F40.5 °F86 %30.15 in10.0 miNNE (20°)9.2 mphOvercast
9:35 PM44.2 °F40.3 °F86 %30.15 in10.0 miNorth (10°)8.1 mphOvercast
9:55 PM43.7 °F39.6 °F85 %30.16 in10.0 miNNE (20°)9.2 mphOvercast
10:15 PM42.8 °F39.2 °F87 %30.16 in10.0 miNNE (30°)6.9 mphOvercast
10:35 PM42.3 °F38.3 °F86 %30.17 in10.0 miNNE (20°)6.9 mphMostly Cloudy
10:55 PM41.9 °F37.8 °F85 %30.17 in10.0 miNNE (30°)4.6 mphOvercast
11:15 PM41.9 °F37.4 °F84 %30.18 in10.0 miNNE (20°)4.6 mphOvercast
11:35 PM41.9 °F37.4 °F84 %30.19 in10.0 miNorth (10°)5.8 mphOvercast
11:55 PM41.9 °F37.4 °F84 %30.18 in10.0 miNorth (10°)6.9 mphOvercast
Hourly data recorded from KSUT, located miles away from Boiling Spring Lakes, North Carolina







STORIES FROM OUR PARTNERS